Location: Aressy
(43.2833°N, 0.3167°W)
Time: 21:28:07
(UTC+00:00)

Okean O Rocket - Pass Details

Date: 28 January 2021
Orbit: 622 x 645 km, 98.2° (Epoch: 03 March)

Event Time Altitude Azimuth Distance (km) Brightness Sun altitude
Rises 17:47:49 0° 172° (S) 2,935 5.2 -7.6°
Reaches altitude 10° 17:50:02 10° 174° (S) 2,028 4.4 -8.0°
Maximum altitude 17:54:26 68° 258° (WSW) 690 2.1 -8.7°
Drops below altitude 10° 17:58:51 10° 342° (NNW) 2,031 4.2 -9.5°
Sets 18:01:04 0° 345° (NNW) 2,940 5.0 -9.9°
